FW6883 Weather Reports


time (UTC)temp
C
wind
direction
speed
KPH
gust
KPH
rain 1hr
cm
rain 24hr
cm
rain mn
cm
humidity
%
barometer
mb
20260507104520 13 144 0.0 4.8 0.00 0.00 0.00 28 1011.5
20260507103018 13 210 3.2 14.5 0.00 0.00 0.00 29 1011.5
20260507101514 13 236 1.6 8.0 0.00 0.00 0.00 31 1011.9
20260507100015 13 211 3.2 11.3 0.00 0.00 0.00 30 1012.2
20260507094508 13 213 1.6 9.7 0.00 0.00 0.00 31 1012.0
20260507093005 13 261 4.8 16.1 0.00 0.00 0.00 30 1012.1
20260507091503 13 260 3.2 12.9 0.00 0.00 0.00 31 1012.3
20260507090105 13 210 0.0 12.9 0.00 0.00 0.00 32 1012.7
20260507084600 13 230 1.6 6.4 0.00 0.00 0.00 32 1012.8
20260507083055 13 250 1.6 12.9 0.00 0.00 0.00 33 1012.8
20260507081554 12 248 0.0 6.4 0.00 0.00 0.00 34 1012.8
20260507080053 13 288 0.0 6.4 0.00 0.00 0.00 32 1012.8
20260507074551 12 150 1.6 6.4 0.00 0.00 0.00 41 1013.0
20260507073048 12 132 1.6 8.0 0.00 0.00 0.00 44 1013.2
20260507071540 13 170 1.6 8.0 0.00 0.00 0.00 33 1013.2
20260507070045 13 203 3.2 12.9 0.00 0.00 0.00 32 1013.3
20260507064538 13 251 1.6 19.3 0.00 0.00 0.00 32 1013.4
20260507063035 13 191 1.6 8.0 0.00 0.00 0.00 33 1013.5
20260507061529 13 197 3.2 9.7 0.00 0.00 0.00 33 1013.7
20260507060027 12 170 0.0 12.9 0.00 0.00 0.00 34 1013.6
20260507054523 11 228 1.6 8.0 0.00 0.00 0.00 41 1013.6
20260507053019 11 127 1.6 11.3 0.00 0.00 0.00 51 1013.6
20260507051517 11 111 3.2 14.5 0.00 0.00 0.00 53 1013.7
20260507050025 10 108 4.8 8.0 0.00 0.00 0.00 55 1014.0
20260507044513 10 111 1.6 4.8 0.00 0.00 0.00 56 1013.9
20260507043011 11 105 4.8 8.0 0.00 0.00 0.00 53 1013.7
20260507041510 11 105 3.2 8.0 0.00 0.00 0.00 52 1013.5
20260507040008 11 115 1.6 6.4 0.00 0.00 0.00 54 1013.5
20260507034505 11 107 3.2 8.0 0.00 0.00 0.00 53 1013.6
20260507033004 11 110 0.0 4.8 0.00 0.00 0.00 53 1013.4
20260507031502 11 148 0.0 3.2 0.00 0.00 0.00 51 1013.2
20260507030111 10 149 0.0 4.8 0.00 0.00 0.00 60 1013.1
20260507024610 10 205 0.0 4.8 0.00 0.00 0.00 63 1013.2
20260507023155 10 143 1.6 6.4 0.00 0.00 0.00 71 1013.3
20260507021557 10 98 3.2 11.3 0.00 0.00 0.00 68 1013.1
20260507020058 11 100 3.2 8.0 0.00 0.00 0.00 66 1013.0
20260507014555 11 105 8.0 17.7 0.00 0.00 0.00 65 1012.8
20260507013044 11 77 6.4 17.7 0.00 0.00 0.00 62 1013.2
20260507011547 12 108 6.4 16.1 0.00 0.00 0.00 61 1013.1
20260507010044 12 97 6.4 17.7 0.00 0.00 0.00 59 1013.0
20260507004538 12 100 6.4 17.7 0.00 0.00 0.00 60 1013.0
20260507003036 12 103 8.0 17.7 0.00 0.00 0.00 59 1013.2
20260507001536 12 103 4.8 16.1 0.00 0.00 0.00 59 1013.3
20260507000035 13 70 8.0 16.1 0.00 0.00 0.00 60 1013.0
20260506234528 12 103 8.0 17.7 0.00 0.00 0.00 58 1013.0
20260506233025 12 65 11.3 19.3 0.00 0.00 0.00 58 1013.2
20260506231522 12 94 6.4 16.1 0.00 0.00 0.00 56 1013.6
20260506230021 12 72 8.0 19.3 0.00 0.00 0.00 58 1013.4
20260506224518 12 72 8.0 20.9 0.00 0.00 0.00 58 1013.3
20260506223018 12 96 8.0 17.7 0.00 0.00 0.00 58 1013.8
20260506221511 13 105 6.4 14.5 0.00 0.00 0.00 57 1013.9
20260506220008 13 28 4.8 14.5 0.00 0.00 0.00 61 1013.9
20260506214504 12 115 4.8 12.9 0.00 0.00 0.00 60 1014.0
20260506213001 12 70 8.0 16.1 0.00 0.00 0.00 62 1014.3
20260506211600 12 72 4.8 16.1 0.00 0.00 0.00 63 1014.4
20260506210058 12 100 4.8 12.9 0.00 0.00 0.00 63 1014.5
20260506204559 12 103 4.8 11.3 0.00 0.00 0.00 62 1014.7
20260506203056 11 101 3.2 9.7 0.00 0.00 0.00 63 1015.0
20260506201556 11 91 3.2 9.7 0.00 0.00 0.00 64 1015.0
20260506200051 11 117 4.8 11.3 0.00 0.00 0.00 62 1015.0
20260506194549 11 94 4.8 9.7 0.00 0.00 0.00 62 1015.4
20260506193048 11 95 3.2 9.7 0.00 0.00 0.00 63 1015.4
20260506191544 12 29 4.8 12.9 0.00 0.00 0.00 63 1015.4
20260506190042 11 320 3.2 8.0 0.00 0.00 0.00 62 1015.5
20260506184545 11 53 0.0 4.8 0.00 0.00 0.00 65 1015.7
20260506183035 11 326 3.2 8.0 0.00 0.00 0.00 63 1015.8
20260506181533 11 342 4.8 9.7 0.00 0.00 0.00 63 1015.7
20260506180030 11 66 1.6 9.7 0.00 0.00 0.00 57 1015.7
20260506174527 11 274 6.4 11.3 0.00 0.10 0.00 55 1015.5
20260506173031 10 51 1.6 9.7 0.00 0.10 0.00 57 1015.5
20260506171625 11 297 6.4 11.3 0.00 0.10 0.00 59 1015.4
20260506170020 10 346 6.4 11.3 0.00 0.10 0.00 59 1015.4
20260506164515 10 297 8.0 12.9 0.00 0.23 0.00 56 1015.5
20260506163021 10 341 4.8 9.7 0.00 0.23 0.00 55 1015.5
20260506161507 9 326 3.2 8.0 0.00 0.23 0.00 60 1015.3
20260506160005 9 306 4.8 8.0 0.00 0.23 0.00 59 1015.3
20260506154604 9 42 0.0 4.8 0.00 0.28 0.00 57 1015.2
20260506153059 9 34 0.0 6.4 0.00 0.28 0.00 57 1015.1
20260506151553 8 26 1.6 4.8 0.00 0.28 0.00 55 1015.1
20260506150051 8 83 0.0 3.2 0.00 0.28 0.00 58 1015.2
20260506144547 8 84 0.0 0.0 0.00 0.36 0.00 59 1015.2
20260506143045 7 337 0.0 1.6 0.00 0.36 0.00 56 1015.1
20260506141537 6 339 0.0 1.6 0.00 0.36 0.00 58 1015.0
20260506140033 5 339 0.0 1.6 0.00 0.36 0.00 61 1014.9
20260506134529 5 310 0.0 1.6 0.00 0.46 0.00 62 1014.8
20260506133025 5 296 1.6 4.8 0.00 0.46 0.00 60 1014.6
20260506131619 4 309 0.0 0.0 0.00 0.46 0.00 69 1014.4
20260506130016 4 201 0.0 3.2 0.00 0.46 0.00 69 1014.3
20260506124514 3 115 1.6 3.2 0.00 0.56 0.00 72 1014.0
20260506123010 3 115 0.0 4.8 0.00 0.56 0.00 70 1013.9
20260506121510 3 125 1.6 3.2 0.00 0.56 0.00 74 1013.6
20260506120006 3 126 1.6 4.8 0.00 0.56 0.00 77 1013.6
20260506114503 3 121 0.0 3.2 0.00 0.56 0.00 77 1013.5
20260506113002 3 86 0.0 1.6 0.00 0.56 0.00 74 1013.6
20260506111558 3 171 0.0 3.2 0.00 0.56 0.00 78 1013.5
20260506110100 3 48 0.0 1.6 0.00 0.56 0.00 86 1013.4